Weather WX

World > North America > United States > Minnesota

Erhard, Minnesota Regional Weather

Lat: 46.48N, Lon: 96.1W
Wx Zone: MNZ030
Warning FLW WEATHER ALERT - (More Info. Click Here) Warning
Feedback

Erhard, MN Regional Weather

Expires:201906160100;;132819
ASUS43 KMPX 160010
RWRMN 
WEATHER ROUNDUP FOR MINNESOTA
NATIONAL WEATHER SERVICE TWIN CITIES/CHANHASSEN MN
700 PM CDT SAT JUN 15 2019


NOTE: "FAIR" INDICATES FEW OR NO CLOUDS BELOW 12,000 FEET WITH NO
SIGNIFICANT WEATHER AND/OR OBSTRUCTIONS TO VISIBILITY. N/A MEANS
CURRENT SKY AND/OR WEATHER CONDITIONS ARE NOT AVAILABLE.


MNZ029>031-032-039>041-046>048-054>057-064-160100-
   West Central Minnesota   
  
CITY           SKY/WX    TMP DP  RH WIND       PRES   REMARKS
FERGUS FALLS   FAIR      61  55  82 E8        29.80S                  
WHEATON        SUNNY     66  61  82 NE6       29.78S                  
MORRIS         MOSUNNY   70  54  56 E8        29.72S                  
ALEXANDRIA     CLOUDY    68  50  52 NE10      29.79S                  
ELBOW LAKE     LGT RAIN  60  56  88 NE9       29.80R                  
WADENA         CLOUDY    59  50  72 N7        29.82R                  
GLENWOOD       FAIR      70  52  52 E9        29.78R                  
APPLETON       MOSUNNY   72  63  73 E5        29.74S                  
BENSON         PTSUNNY   70  59  68 E5        29.76R                  
ORTONVILLE     MOSUNNY   72  63  73 E6        29.76R                  
MADISON        MOSUNNY   72  64  78 E7        29.74F                  
WILLMAR        FAIR      72  57  60 E9        29.76F                  
$$

SKY/WX - Weather  TMP - Temperature  DP - Dew Point  RH - Relative Humidity
WIND - Wind Direction/Speed PRES - Barometric Pressure VSB - Visibility
WCI - Wind Chill Index E13G22 Wind - East Wind 13 mph/Gusts of 22 mph